Voltar ao catálogo

STARLINK-32429

AtivoComunicaçõesVLEO
NORAD 61682·PAYLOAD·🇺🇸 United States

Lançado Oct 26, 2024 de Cape Canaveral Space Force Station

Loading…

Próximas Passagens (próximas 24 horas)

TLE

AtualizadoSource: CelesTrak SupGP

Época: Sep 14, 2026, 22:33 UTC

1 61682C 24193X   26257.94006944  .00045226  00000+0  14544-2 0  2575
2 61682  53.1565 290.8782 0001068  96.7228  18.3840 15.31679197    19

Acompanhe STARLINK-32429 em tempo real com AllMySat

Download on the App Store